Regional Weather Roundup
Issued by NWS

Home | Current Version | Previous Version | Graphics & Text | Print | Product List | Glossary Off
Versions: 1 2 3 4 5 6 7 8 9 10 11 12 13 14 15 16 17 18 19 20 21 22 23 24 25 26 27 28 29 30 31 32 33 34 35 36 37 38 39 40 41 42 43 44 45 46 47 48 49 50

000
ASUS43 KTOP 262359
RWRKS

WEATHER ROUNDUP FOR KANSAS
NATIONAL WEATHER SERVICE GOODLAND KS
700 PM CDT TUE AUG 26 2014

NOTE:  "FAIR" INDICATES FEW OR NO CLOUDS BELOW 12,000 FEET WITH NO
SIGNIFICANT WEATHER AND/OR OBSTRUCTIONS TO VISIBILITY.

KSZ001>006-013>018-027>032-041>047-270100-
NORTHWEST KANSAS

CITY           SKY/WX    TMP DP  RH WIND       PRES   REMARKS
GOODLAND       PTSUNNY   81  61  50 S9        30.11R
6HR MIN TEMP:  75; 6HR MAX TEMP:  85;

HAYS           SUNNY     88  64  45 S12G18    30.04S
HILL CITY      SUNNY     86  62  44 SE9       30.05S
6HR MIN TEMP:  78; 6HR MAX TEMP:  90;

RUSSELL        SUNNY     86  66  51 S14       30.03S
6HR MIN TEMP:  84; 6HR MAX TEMP:  88;

$$

KSZ061>065-074>080-084>089-270100-
SOUTHWEST KANSAS

CITY           SKY/WX    TMP DP  RH WIND       PRES   REMARKS
DODGE CITY     MOSUNNY   85  63  47 SE10      30.07R
6HR MIN TEMP:  81; 6HR MAX TEMP:  88;

ELKHART          N/A     81  56  42 S13         N/A
GARDEN CITY    SUNNY     86  61  42 SE13      30.06R
6HR MIN TEMP:  81; 6HR MAX TEMP:  90;

GREAT BEND     SUNNY     88  63  42 S12       30.04S
LIBERAL        PTSUNNY   88  61  40 SE21      30.07S
$$

KSZ066>073-081>083-090>101-270100-
SOUTHEAST KANSAS

CITY           SKY/WX    TMP DP  RH WIND       PRES   REMARKS
CHANUTE        SUNNY     95  61  32 S8        30.00S HX  95
6HR MIN TEMP:  93; 6HR MAX TEMP:  99;

COFFEYVILLE    SUNNY     94  69  44 S7        29.98S HX  99
6HR MIN TEMP:  93; 6HR MAX TEMP:  99;

HUTCHINSON     MOSUNNY   87  64  46 S3        30.04S
6HR MIN TEMP:  82; 6HR MAX TEMP:  90; 6HR PCP: TRACE;

NEWTON         CLOUDY    84  63  48 CALM      30.07R
PARSONS        SUNNY     94  66  39 S3        30.00F HX  97
6HR MIN TEMP:  94; 6HR MAX TEMP:  99;

WICHITA INTL   LGT RAIN  80  69  69 E5        30.01F
6HR MIN TEMP:  78; 6HR MAX TEMP:  97; 6HR PCP: TRACE;

WICHITA JABRA  LGT RAIN  81  69  67 NW6       30.02F
6HR MIN TEMP:  81; 6HR MAX TEMP:  97; 6HR PCP: TRACE;

WINFIELD       PTSUNNY   90  64  42 SE3       30.02S
6HR MIN TEMP:  89; 6HR MAX TEMP:  97;

$$

KSZ007>012-019>026-033>040-048>060-102>105-270100-
NORTHEAST KANSAS

CITY           SKY/WX    TMP DP  RH WIND       PRES   REMARKS
CONCORDIA      SUNNY     86  73  65 NE5       30.04S
6HR MIN TEMP:  80; 6HR MAX TEMP:  87;

EMPORIA        PTSUNNY   81  67  62 N9        30.03R
6HR MIN TEMP:  81; 6HR MAX TEMP:  96;

LAWRENCE       SUNNY     87  72  60 NE9       30.02R
6HR MIN TEMP:  86; 6HR MAX TEMP:  98;

MANHATTAN      PTSUNNY   84  67  56 E9        30.04F
6HR MIN TEMP:  77; 6HR MAX TEMP:  96; 6HR PCP:  0.01;

OLATHE IND     SUNNY     90  68  48 E6        30.05R
6HR MIN TEMP:  87; 6HR MAX TEMP:  94;

OLATHE EXE     SUNNY     88  69  53 SE3       30.04R
6HR MIN TEMP:  86; 6HR MAX TEMP:  92;

SALINA         SUNNY     89  65  44 E7        30.02F
6HR MIN TEMP:  85; 6HR MAX TEMP:  93; 6HR PCP: TRACE;

TOPEKA BILLARD PTSUNNY   85  72  65 NE7       30.03R
6HR MIN TEMP:  85; 6HR MAX TEMP:  93;

TOPEKA FORBES  PTSUNNY   86  71  60 NE10      30.03R
6HR MIN TEMP:  85; 6HR MAX TEMP:  95;

$$



USA.gov is the U.S. government's official web portal to all federal, state and local government web resources and services.